Location: Igri�s
(42.2144°N, 0.4320°W)
Time: 17:48:42
(UTC+00:00)

Cosmos 2360 - Pass Details

Date: 13 August 2020
Orbit: 844 x 858 km, 70.8° (Epoch: 19 September)

Event Time Altitude Azimuth Distance (km) Brightness Sun altitude
Rises 20:18:17 0° 333° (NNW) 3,441 8.5 -13.0°
Reaches altitude 10° 20:20:46 10° 332° (NNW) 2,500 7.7 -13.3°
Maximum altitude 20:26:30 76° 249° (WSW) 887 4.4 -14.2°
Enters shadow 20:31:28 14° 165° (SSE) 2,208 5.9 -15.0°
